{"data":{"norad_id":54052,"intl_designator":"2022-136B","name":"STARLINK-5189","alt_names":[],"object_type":"PAYLOAD","status":"ACTIVE","operator":null,"country":"US","launch_date":"2022-10-20","launch_site_code":"AFETR","launch_vehicle":null,"mission":null,"orbit_class":"UNKNOWN","rcs_meters":null,"size_class":null,"mass_kg":null,"dimensions":null,"purposes":["comms"],"wikipedia_slug":null,"has_3d_model":false,"image_url":null,"decayed_at":null,"tle_current":{"epoch":"2026-05-24T21:43:12.044928Z","epoch_age_seconds":86785,"freshness":"FRESH","line1":"1 54052U 22136B   26144.90500052 -.00000349  00000+0 -38468-5 0  9999","line2":"2 54052  53.2143 321.7887 0000962  72.5495 287.5602 15.08834121198912","mean_motion":15.08834121,"eccentricity":9.62e-5,"inclination_deg":53.2143,"raan_deg":321.7887,"arg_perigee_deg":72.5495,"mean_anomaly_deg":287.5602,"bstar":-3.8468e-6,"rev_number":19891,"period_min":95.437926539308,"perigee_km":539.09585695141,"apogee_km":540.42686059563,"semimajor_km":6917.8983587735,"source":"CELESTRAK","updated_at":"2026-05-25T13:38:17.627653Z"}}}